Terminal Aerodrome Forecast
Issued by NWS Twin Cities, MN

Home | Current Version | Previous Version | Graphics & Text | Print | Product List | Glossary On
Versions: 1 2 3 4 5 6 7 8 9 10 11 12 13 14 15 16
000
FTUS43 KMPX 301500 AAA
TAFEAU
TAF AMD
KEAU 301500Z 3015/0112 16005KT 2SM -RA BR OVC004
      TEMPO 3015/3019 4SM -RA BR OVC008
     FM301900 VRB03KT 3SM -DZ BR OVC008
     FM010200 31005KT P6SM VCSH OVC010
     FM010600 30006KT P6SM OVC015=

USA.gov is the U.S. government's official web portal to all federal, state and local government web resources and services.